Погода в Пошехонье

Россия / Ярославская область     58˚30′13″N   39˚07′12″E
темп.,
°C
ветер,
м/с
пор.,
м/с
влажн.,
%
обл.,
%
осадки,
мм/ч
давл.,
гПа
погр.,
м
15 января, пт
пт1500:00−20˚св3797100 0.3 1010244
03:00−20˚св369699 0.3 1010240
06:00−20˚ссв3597100 0.2 1010204
09:00−20˚св3597100 0.3 1011219
12:00−20˚ссв239677 0.1 1013158
15:00−20˚ссв239777 0.1 101477
18:00−20˚ссв2498100 0.0 101494
21:00−21˚ссв2497100 0.1 1014112
16 января, сб
сб1600:00−19˚св3595100 0.0 1014219
03:00−18˚св3695100 0.1 1014260
06:00−19˚ссв4994100 0.1 1012288
09:00−19˚ссв4993100 0.1 1011330
12:00−18˚ссв51193100 0.0 1010350
15:00−19˚с51192100 0.0 1009414
18:00−20˚ссв41292100 0.0 1009422
21:00−21˚с4119399 0.0 1010332
17 января, вс
вс1700:00−23˚с4109495 0.0 1011242
03:00−24˚с389559 0.0 1012183
06:00−25˚с25960 0.0 1013103
09:00−25˚с23960 0.0 101549
12:00−21˚ссз129518 0.0 101685
15:00−20˚зсз229424 0.0 101621
18:00−22˚зсз229326 0.0 101720
21:00−21˚зюз229543 0.0 101820
18 января, пн
пн1800:00−20˚зюз2310085 0.0 101833
03:00−19˚юз2310093 0.1 101862
06:00−18˚юз239999 0.1 101674
09:00−16˚юз3597100 0.1 1018182
12:00−15˚юз3596100 0.2 1018221
15:00−15˚юз229799 0.2 101746
18:00−15˚ююз2398100 0.1 101842
21:00−15˚ююз229799 0.2 101939
19 января, вт
вт1900:00−16˚ююв119986 0.1 101920
03:00−16˚ююв129792 0.1 101924
06:00−17˚вюв119888 0.1 101921
09:00−17˚юв129786 0.1 102024
12:00−13˚з239796 0.0 102299
15:00−13˚юз239897 0.1 102174
18:00−14˚юз239897 0.0 102241
21:00−14˚юз339791 0.1 102247